IKS7011 EDDF-SAWH

Flight info

Callsign IKS7011
Flight time N/A
Altitude 27000
Route ANEKI Y163 HERBI Y164 OLBEN/N0496F280 DCT ONNOF/N0493F290 DCT BELUS/N0491F300 DCT LSE/N0497F270 UY305 ESIDA DCT GAI DCT PERDU/N0497F280 DCT KONKE/N0495F290 Z245 CJN N10 VTB/N0500F270 N10 SVL N857 KORNO UN857 TOVRA/N0500F290 UN857 TERTO N857 DEREV/N0500F300 N857 GUNET UN857 TEKSO/N0503F320 UN857 MEDIT/N0497F340 UN857 LOGIP/N0485F360 UN857 NELOX UM424 TOLEP UM661 CRR UM792 MDP UW32 SIGUL UT662 SALVU/N0481F380 UT662 ASKAS UT704 DABLI DABL1Q
Aircraft B77L/H-SDE1E2E3FGHIJ2J3J4J5M1RWXYZ/LB1D1

Departure

Time 2026-05-06 01:48
Airport Frankfurt Main Airport (EDDF)

Arrival

Time N/A
Airport Ushuaia - Malvinas Argentinas International Airport (SAWH)
Time Latitude Longitude Altitude Speed Heading
2026-05-06 01:28 50.04722 8.57542 360 ft 0 kts 28°
2026-05-06 01:33 50.04714 8.57535 360 ft 4 kts 28°
2026-05-06 01:33 50.04690 8.57515 369 ft 4 kts 29°
2026-05-06 01:33 50.04666 8.57496 367 ft 4 kts 17°
2026-05-06 01:33 50.04640 8.57489 361 ft 4 kts 356°
2026-05-06 01:34 50.04616 8.57498 364 ft 4 kts 316°
2026-05-06 01:34 50.04611 8.57507 367 ft 2 kts 306°
2026-05-06 01:39 50.04611 8.57493 362 ft 5 kts 271°
2026-05-06 01:39 50.04576 8.57347 367 ft 12 kts 249°
2026-05-06 01:40 50.04556 8.57265 370 ft 12 kts 250°
2026-05-06 01:40 50.04526 8.57139 361 ft 13 kts 249°
2026-05-06 01:40 50.04495 8.57010 361 ft 15 kts 249°
2026-05-06 01:40 50.04449 8.56820 365 ft 21 kts 250°
2026-05-06 01:41 50.04400 8.56610 366 ft 21 kts 250°
2026-05-06 01:41 50.04350 8.56401 360 ft 21 kts 249°
2026-05-06 01:41 50.04300 8.56192 365 ft 21 kts 249°
2026-05-06 01:41 50.04252 8.55997 367 ft 21 kts 250°
2026-05-06 01:42 50.04203 8.55787 360 ft 21 kts 250°
2026-05-06 01:42 50.04154 8.55579 363 ft 21 kts 250°
2026-05-06 01:42 50.04104 8.55370 363 ft 21 kts 249°
2026-05-06 01:42 50.04053 8.55162 364 ft 21 kts 250°
2026-05-06 01:43 50.04005 8.54957 364 ft 21 kts 249°
2026-05-06 01:43 50.03956 8.54755 361 ft 21 kts 249°
2026-05-06 01:43 50.03906 8.54547 352 ft 21 kts 249°
2026-05-06 01:43 50.03849 8.54344 354 ft 21 kts 236°
2026-05-06 01:44 50.03782 8.54148 357 ft 21 kts 249°
2026-05-06 01:44 50.03732 8.53939 355 ft 21 kts 250°
2026-05-06 01:44 50.03682 8.53730 355 ft 21 kts 249°
2026-05-06 01:44 50.03630 8.53523 351 ft 21 kts 248°
2026-05-06 01:45 50.03579 8.53314 347 ft 21 kts 250°
2026-05-06 01:45 50.03530 8.53105 352 ft 21 kts 250°
2026-05-06 01:45 50.03479 8.52897 336 ft 21 kts 247°
2026-05-06 01:45 50.03436 8.52746 335 ft 12 kts 247°
2026-05-06 01:46 50.03411 8.52640 335 ft 9 kts 251°
2026-05-06 01:46 50.03398 8.52543 340 ft 9 kts 268°
2026-05-06 01:46 50.03383 8.52512 338 ft 3 kts 175°
2026-05-06 01:46 50.03374 8.52540 338 ft 3 kts 105°
2026-05-06 01:47 50.03367 8.52569 335 ft 3 kts 119°
2026-05-06 01:47 50.03349 8.52589 340 ft 3 kts 160°
2026-05-06 01:47 50.03325 8.52594 340 ft 3 kts 180°
2026-05-06 01:47 50.03256 8.52594 335 ft 21 kts 180°
2026-05-06 01:48 50.02891 8.52598 335 ft 89 kts 179°
2026-05-06 01:48 50.02027 8.52607 338 ft 158 kts 180°
2026-05-06 01:48 50.00730 8.52610 374 ft 206 kts 180°
2026-05-06 01:48 49.99318 8.52577 1026 ft 199 kts 183°
2026-05-06 01:49 49.97945 8.52553 1684 ft 198 kts 178°
2026-05-06 01:49 49.96534 8.52690 2037 ft 211 kts 176°
2026-05-06 01:49 49.94938 8.52856 2196 ft 229 kts 177°
2026-05-06 01:49 49.93298 8.53012 2515 ft 240 kts 178°
2026-05-06 01:50 49.91586 8.53162 2872 ft 252 kts 178°
2026-05-06 01:50 49.89824 8.53304 3236 ft 262 kts 178°
2026-05-06 01:50 49.88004 8.53446 3884 ft 262 kts 178°
2026-05-06 01:50 49.86178 8.53582 4510 ft 263 kts 179°
2026-05-06 01:51 49.84338 8.53713 5082 ft 266 kts 179°
2026-05-06 01:51 49.82480 8.53846 5652 ft 268 kts 179°
2026-05-06 01:51 49.80631 8.53978 6196 ft 270 kts 179°
2026-05-06 01:51 49.78742 8.54111 6751 ft 273 kts 179°
2026-05-06 01:52 49.76844 8.54130 7260 ft 274 kts 185°
2026-05-06 01:52 49.74931 8.53896 7759 ft 277 kts 187°
2026-05-06 01:52 49.73001 8.53597 8285 ft 279 kts 187°
2026-05-06 01:52 49.71055 8.53298 8787 ft 282 kts 187°
2026-05-06 01:53 49.69097 8.53006 9255 ft 284 kts 187°
2026-05-06 01:53 49.67119 8.52727 9753 ft 286 kts 187°
2026-05-06 01:53 49.65123 8.52442 10178 ft 292 kts 187°
2026-05-06 01:53 49.63069 8.52162 10529 ft 299 kts 187°
2026-05-06 01:54 49.60983 8.51883 10994 ft 302 kts 186°
2026-05-06 01:54 49.58884 8.51601 11508 ft 304 kts 187°
2026-05-06 01:54 49.56777 8.51322 12024 ft 304 kts 187°
2026-05-06 01:54 49.54663 8.51024 12507 ft 306 kts 187°
2026-05-06 01:55 49.52496 8.50733 12699 ft 321 kts 186°
2026-05-06 01:55 49.50243 8.50443 12834 ft 336 kts 186°
2026-05-06 01:55 49.47853 8.50139 12970 ft 353 kts 186°
2026-05-06 01:55 49.45355 8.49821 13104 ft 368 kts 186°
2026-05-06 01:56 49.42761 8.49482 13411 ft 379 kts 186°
2026-05-06 01:56 49.40172 8.49139 13842 ft 386 kts 186°
2026-05-06 01:56 49.37487 8.48788 14415 ft 388 kts 186°
2026-05-06 01:56 49.34789 8.48438 15031 ft 390 kts 186°
2026-05-06 01:57 49.32078 8.48084 15583 ft 393 kts 186°
2026-05-06 01:57 49.29338 8.47731 16108 ft 396 kts 186°
2026-05-06 01:57 49.26584 8.47378 16633 ft 398 kts 185°
2026-05-06 01:57 49.23810 8.47018 17133 ft 401 kts 185°
2026-05-06 01:58 49.21018 8.46652 17633 ft 404 kts 185°
2026-05-06 01:58 49.18207 8.46285 18132 ft 407 kts 185°
2026-05-06 01:58 49.15372 8.45918 18616 ft 409 kts 185°
2026-05-06 01:58 49.12524 8.45547 19078 ft 412 kts 185°
2026-05-06 01:59 49.09661 8.45176 19528 ft 414 kts 185°
2026-05-06 01:59 49.06780 8.44777 19943 ft 417 kts 187°
2026-05-06 01:59 49.03914 8.44003 20373 ft 419 kts 194°
2026-05-06 01:59 49.01071 8.42959 20820 ft 421 kts 194°
2026-05-06 02:00 48.98241 8.41939 21239 ft 424 kts 193°
2026-05-06 02:00 48.95354 8.40921 21661 ft 426 kts 193°
2026-05-06 02:00 48.92456 8.39908 22069 ft 429 kts 193°
2026-05-06 02:00 48.89546 8.38898 22455 ft 431 kts 193°
2026-05-06 02:01 48.86614 8.37882 22852 ft 433 kts 193°
2026-05-06 02:01 48.83666 8.36863 23238 ft 436 kts 193°
2026-05-06 02:01 48.80697 8.35837 23630 ft 438 kts 193°
2026-05-06 02:01 48.77714 8.34801 24018 ft 440 kts 193°
2026-05-06 02:02 48.74729 8.33726 24394 ft 442 kts 194°
2026-05-06 02:02 48.71734 8.32624 24743 ft 444 kts 194°
2026-05-06 02:02 48.68757 8.31525 25078 ft 446 kts 194°
2026-05-06 02:02 48.65725 8.30412 25430 ft 448 kts 194°
2026-05-06 02:03 48.62686 8.29300 25775 ft 450 kts 194°
2026-05-06 02:03 48.59634 8.28189 26108 ft 452 kts 194°
2026-05-06 02:03 48.56568 8.27075 26432 ft 454 kts 194°
2026-05-06 02:03 48.53482 8.25955 26725 ft 457 kts 194°
2026-05-06 02:04 48.50363 8.24824 26774 ft 462 kts 194°
2026-05-06 02:04 48.47232 8.23689 26830 ft 465 kts 194°
2026-05-06 02:04 48.44053 8.22529 26904 ft 472 kts 194°
2026-05-06 02:04 48.40842 8.21351 27049 ft 477 kts 194°
2026-05-06 02:05 48.37650 8.20185 27284 ft 479 kts 194°
2026-05-06 02:05 48.34411 8.19005 27620 ft 478 kts 194°
2026-05-06 02:05 48.31173 8.17824 27998 ft 477 kts 194°
2026-05-06 02:05 48.27948 8.16651 28415 ft 475 kts 194°
2026-05-06 02:06 48.24748 8.15450 28746 ft 473 kts 196°
2026-05-06 02:06 48.21620 8.13877 28804 ft 475 kts 202°
2026-05-06 02:06 48.15464 8.10276 28841 ft 474 kts 201°
2026-05-06 02:07 48.09311 8.06765 28848 ft 472 kts 201°
2026-05-06 02:07 48.03219 8.03330 28848 ft 471 kts 201°
2026-05-06 02:08 47.97083 7.99882 28847 ft 470 kts 201°
2026-05-06 02:08 47.90953 7.96442 28854 ft 471 kts 201°
2026-05-06 02:09 47.84804 7.93000 28857 ft 472 kts 201°
2026-05-06 02:09 47.78632 7.89556 28854 ft 473 kts 201°
2026-05-06 02:10 47.72493 7.86133 28859 ft 473 kts 201°
2026-05-06 02:10 47.66315 7.82704 28860 ft 474 kts 201°
2026-05-06 02:11 47.60136 7.79283 28857 ft 473 kts 201°
2026-05-06 02:11 47.54004 7.75891 28854 ft 472 kts 201°
2026-05-06 02:12 47.47851 7.72498 28864 ft 471 kts 201°
2026-05-06 02:12 47.41713 7.69120 28859 ft 470 kts 201°
2026-05-06 02:13 47.35577 7.65751 28864 ft 468 kts 201°
2026-05-06 02:13 47.29800 7.61411 28865 ft 467 kts 213°
2026-05-06 02:14 47.24714 7.55591 28864 ft 466 kts 221°
2026-05-06 02:14 47.19903 7.49213 28861 ft 465 kts 221°
2026-05-06 02:15 47.15084 7.42864 28860 ft 465 kts 221°
2026-05-06 02:15 47.10241 7.36540 28862 ft 465 kts 221°
2026-05-06 02:16 47.05402 7.30252 28863 ft 464 kts 221°
2026-05-06 02:16 47.00587 7.24017 28861 ft 464 kts 221°
2026-05-06 02:17 46.95750 7.17762 28861 ft 463 kts 221°
2026-05-06 02:17 46.90909 7.11516 28862 ft 463 kts 221°
2026-05-06 02:18 46.86889 7.06345 28860 ft 462 kts 221°
2026-05-06 02:18 46.82054 7.00133 28865 ft 462 kts 221°
2026-05-06 02:19 46.76435 6.92946 28860 ft 462 kts 221°
2026-05-06 02:19 46.72415 6.87818 28860 ft 462 kts 221°
2026-05-06 02:20 46.65165 6.78577 28862 ft 462 kts 221°
2026-05-06 02:21 46.60316 6.72422 28860 ft 461 kts 221°
2026-05-06 02:21 46.55477 6.66295 28864 ft 461 kts 220°
2026-05-06 02:22 46.50627 6.60171 28860 ft 461 kts 220°
2026-05-06 02:22 46.45778 6.54063 28860 ft 461 kts 220°
2026-05-06 02:23 46.40933 6.47969 28861 ft 461 kts 220°
2026-05-06 02:23 46.36087 6.41887 28862 ft 461 kts 220°
2026-05-06 02:24 46.31241 6.35826 28859 ft 460 kts 220°
2026-05-06 02:24 46.26400 6.29788 28863 ft 459 kts 220°
2026-05-06 02:25 46.21579 6.23787 28861 ft 459 kts 220°
2026-05-06 02:25 46.16737 6.17772 28861 ft 459 kts 220°
2026-05-06 02:26 46.11886 6.11760 28863 ft 459 kts 220°
2026-05-06 02:26 46.07032 6.05761 28860 ft 459 kts 220°
2026-05-06 02:27 46.02184 5.99781 28860 ft 460 kts 220°
2026-05-06 02:27 45.97341 5.93819 28858 ft 460 kts 220°
2026-05-06 02:28 45.92434 5.87912 28865 ft 460 kts 219°
2026-05-06 02:28 45.87430 5.82188 28859 ft 460 kts 218°
2026-05-06 02:29 45.82419 5.76463 28862 ft 460 kts 218°
2026-05-06 02:29 45.77451 5.70753 28863 ft 460 kts 218°
2026-05-06 02:30 45.72483 5.64988 28847 ft 457 kts 223°
2026-05-06 02:30 45.70495 5.61462 28869 ft 458 kts 240°
2026-05-06 02:30 45.69308 5.57215 28875 ft 462 kts 253°
2026-05-06 02:30 45.68763 5.52677 28863 ft 467 kts 264°
2026-05-06 02:31 45.68897 5.48006 28858 ft 473 kts 277°
2026-05-06 02:31 45.70318 5.38770 28864 ft 477 kts 279°
2026-05-06 02:32 45.71722 5.29541 28865 ft 478 kts 278°
2026-05-06 02:32 45.73020 5.20200 28859 ft 479 kts 278°
2026-05-06 02:33 45.73743 5.10812 28870 ft 470 kts 261°
2026-05-06 02:33 45.73398 5.07750 28873 ft 468 kts 254°
2026-05-06 02:34 45.68714 4.94021 28864 ft 464 kts 239°
2026-05-06 02:34 45.65616 4.85899 28863 ft 465 kts 241°
2026-05-06 02:35 45.62712 4.77621 28863 ft 466 kts 242°
2026-05-06 02:35 45.59815 4.69332 28859 ft 466 kts 242°
2026-05-06 02:36 45.56885 4.61066 28864 ft 467 kts 241°
2026-05-06 02:36 45.53932 4.52798 28864 ft 467 kts 241°
2026-05-06 02:37 45.50977 4.44547 28861 ft 466 kts 241°
2026-05-06 02:37 45.47721 4.36638 28863 ft 464 kts 232°
2026-05-06 02:38 45.43639 4.29555 28869 ft 462 kts 229°
2026-05-06 02:38 45.39533 4.22480 28864 ft 463 kts 229°
2026-05-06 02:39 45.35442 4.15393 28863 ft 463 kts 229°
2026-05-06 02:39 45.31351 4.08306 28856 ft 464 kts 229°
2026-05-06 02:40 45.27279 4.01263 28862 ft 464 kts 229°
2026-05-06 02:40 45.23175 3.94191 28856 ft 464 kts 229°
2026-05-06 02:41 45.19054 3.87109 28864 ft 465 kts 229°
2026-05-06 02:41 45.14919 3.80022 28865 ft 466 kts 229°
2026-05-06 02:42 45.10782 3.72945 28868 ft 467 kts 229°
2026-05-06 02:42 45.06654 3.65902 28871 ft 467 kts 229°
2026-05-06 02:43 45.02498 3.58828 28875 ft 467 kts 229°
2026-05-06 02:43 44.98335 3.51770 28868 ft 468 kts 229°
2026-05-06 02:44 44.94174 3.44717 28879 ft 467 kts 229°
2026-05-06 02:44 44.90007 3.37682 28883 ft 467 kts 229°
2026-05-06 02:45 44.85829 3.30641 28878 ft 468 kts 229°
2026-05-06 02:45 44.81649 3.23610 28898 ft 468 kts 229°
2026-05-06 02:46 44.77454 3.16589 28903 ft 468 kts 229°
2026-05-06 02:46 44.73290 3.09621 28903 ft 467 kts 229°
2026-05-06 02:47 44.69097 3.02633 28910 ft 467 kts 229°
2026-05-06 02:47 44.64904 2.95651 28905 ft 467 kts 229°
2026-05-06 02:48 44.60704 2.88684 28915 ft 468 kts 229°
2026-05-06 02:48 44.56500 2.81709 28899 ft 468 kts 229°
2026-05-06 02:49 44.52280 2.74742 28908 ft 469 kts 229°
2026-05-06 02:49 44.48078 2.67824 28911 ft 469 kts 229°
2026-05-06 02:50 44.43843 2.60859 28910 ft 469 kts 229°
2026-05-06 02:50 44.39603 2.53897 28908 ft 470 kts 229°
2026-05-06 02:51 44.35349 2.46955 28918 ft 470 kts 229°
2026-05-06 02:51 44.31090 2.40006 28917 ft 471 kts 229°
2026-05-06 02:52 44.26830 2.33052 28918 ft 472 kts 229°
2026-05-06 02:52 44.22546 2.26102 28915 ft 472 kts 229°
2026-05-06 02:53 44.18267 2.19169 28916 ft 471 kts 229°
2026-05-06 02:53 44.13979 2.12248 28918 ft 471 kts 228°
2026-05-06 02:54 44.09725 2.05387 28928 ft 470 kts 228°
2026-05-06 02:54 44.05435 1.98485 28934 ft 470 kts 228°
2026-05-06 02:55 44.01153 1.91610 28933 ft 469 kts 228°
2026-05-06 02:55 43.96895 1.84801 28946 ft 469 kts 228°
2026-05-06 02:56 43.92459 1.78142 28944 ft 469 kts 225°
2026-05-06 02:56 43.87858 1.71721 28944 ft 469 kts 224°
2026-05-06 02:57 43.83256 1.65324 28945 ft 469 kts 225°
2026-05-06 02:57 43.78693 1.58943 28946 ft 469 kts 225°
2026-05-06 02:58 43.74092 1.52517 28946 ft 469 kts 225°
2026-05-06 02:58 43.69500 1.46109 28943 ft 469 kts 225°
2026-05-06 02:59 43.64904 1.39718 28945 ft 469 kts 225°
2026-05-06 02:59 43.60295 1.33329 28935 ft 468 kts 225°
2026-05-06 03:00 43.55700 1.26964 28937 ft 468 kts 225°
2026-05-06 03:00 43.51138 1.20658 28945 ft 467 kts 225°
2026-05-06 03:01 43.46534 1.14311 28945 ft 468 kts 225°
2026-05-06 03:01 43.41928 1.07976 28942 ft 467 kts 225°
2026-05-06 03:02 43.38096 1.02717 28948 ft 467 kts 225°
2026-05-06 03:02 43.32715 0.95350 28945 ft 467 kts 225°
2026-05-06 03:03 43.28128 0.89088 28947 ft 467 kts 225°
2026-05-06 03:03 43.24295 0.83865 28944 ft 467 kts 225°
2026-05-06 03:04 43.18906 0.76531 28949 ft 466 kts 225°
2026-05-06 03:04 43.15072 0.71326 28951 ft 466 kts 225°
2026-05-06 03:05 43.10464 0.65088 28965 ft 466 kts 225°
2026-05-06 03:05 43.05853 0.58863 28951 ft 466 kts 225°
2026-05-06 03:06 43.01268 0.52683 28947 ft 465 kts 225°
2026-05-06 03:06 42.96660 0.46479 28949 ft 465 kts 225°
2026-05-06 03:07 42.92049 0.40287 28972 ft 464 kts 225°
2026-05-06 03:07 42.87436 0.34113 28970 ft 464 kts 225°
2026-05-06 03:08 42.82832 0.27953 28952 ft 463 kts 225°
2026-05-06 03:08 42.78233 0.21823 28952 ft 462 kts 225°
2026-05-06 03:09 42.73640 0.15712 28968 ft 461 kts 225°
2026-05-06 03:09 42.68852 0.09964 28953 ft 462 kts 222°
2026-05-06 03:10 42.63977 0.04281 28973 ft 461 kts 222°
2026-05-06 03:10 42.59104 -0.01405 28976 ft 461 kts 222°
2026-05-06 03:11 42.54237 -0.07090 28938 ft 464 kts 223°
2026-05-06 03:11 42.49296 -0.12858 28959 ft 473 kts 223°
2026-05-06 03:12 42.44312 -0.18655 28943 ft 475 kts 223°
2026-05-06 03:12 42.39296 -0.24479 28946 ft 474 kts 223°
2026-05-06 03:13 42.34288 -0.30277 28942 ft 473 kts 222°
2026-05-06 03:13 42.29292 -0.36053 28945 ft 472 kts 223°
2026-05-06 03:14 42.24294 -0.41818 28947 ft 471 kts 222°
2026-05-06 03:14 42.19316 -0.47547 28940 ft 470 kts 222°
2026-05-06 03:15 42.14382 -0.53214 28969 ft 469 kts 222°
2026-05-06 03:15 42.09419 -0.58896 28980 ft 468 kts 222°
2026-05-06 03:16 42.04456 -0.64576 28979 ft 468 kts 222°
2026-05-06 03:16 41.99499 -0.70240 28973 ft 467 kts 222°
2026-05-06 03:17 41.94535 -0.75888 28984 ft 466 kts 222°
2026-05-06 03:17 41.89588 -0.81510 28970 ft 464 kts 222°
2026-05-06 03:18 41.84662 -0.87097 28975 ft 463 kts 222°
2026-05-06 03:18 41.79778 -0.92623 28987 ft 462 kts 222°
2026-05-06 03:19 41.74829 -0.98212 28990 ft 462 kts 222°
2026-05-06 03:19 41.69906 -1.03758 28989 ft 463 kts 222°
2026-05-06 03:20 41.62511 -1.12071 28996 ft 463 kts 222°
2026-05-06 03:20 41.57570 -1.17612 28993 ft 464 kts 222°
2026-05-06 03:21 41.52641 -1.23125 28990 ft 465 kts 222°
2026-05-06 03:21 41.47675 -1.28672 28987 ft 465 kts 222°
2026-05-06 03:22 41.42706 -1.34208 28985 ft 465 kts 222°
2026-05-06 03:22 41.37776 -1.39692 28986 ft 464 kts 222°
2026-05-06 03:23 41.32814 -1.45194 28990 ft 464 kts 222°
2026-05-06 03:23 41.27846 -1.50697 28989 ft 464 kts 222°
2026-05-06 03:24 41.22874 -1.56193 28983 ft 464 kts 222°
2026-05-06 03:24 41.17899 -1.61678 28985 ft 464 kts 221°
2026-05-06 03:25 41.12932 -1.67147 28989 ft 464 kts 221°
2026-05-06 03:25 41.08789 -1.71700 28979 ft 464 kts 221°
2026-05-06 03:26 41.03006 -1.78046 28971 ft 464 kts 221°
2026-05-06 03:26 40.98140 -1.83666 28972 ft 463 kts 224°
2026-05-06 03:27 40.93353 -1.89375 28968 ft 463 kts 224°
2026-05-06 03:27 40.88546 -1.95049 28970 ft 463 kts 223°
2026-05-06 03:28 40.83724 -2.00693 28977 ft 463 kts 223°
2026-05-06 03:28 40.78925 -2.06291 28981 ft 464 kts 223°
2026-05-06 03:29 40.74079 -2.11940 28978 ft 464 kts 223°
2026-05-06 03:29 40.69223 -2.17580 28982 ft 464 kts 223°
2026-05-06 03:30 40.64369 -2.23199 28987 ft 465 kts 223°
2026-05-06 03:30 40.59512 -2.28809 28977 ft 465 kts 223°
2026-05-06 03:31 40.54681 -2.34384 28992 ft 465 kts 223°
2026-05-06 03:31 40.49811 -2.39988 28984 ft 465 kts 223°
2026-05-06 03:32 40.44942 -2.45584 28991 ft 464 kts 223°
2026-05-06 03:32 40.40073 -2.51168 28991 ft 464 kts 223°
2026-05-06 03:33 40.35452 -2.57049 28991 ft 462 kts 231°
2026-05-06 03:33 40.31383 -2.63576 28993 ft 462 kts 232°
2026-05-06 03:34 40.27278 -2.70071 28994 ft 462 kts 231°
2026-05-06 03:34 40.23184 -2.76495 28991 ft 463 kts 231°
2026-05-06 03:35 40.19054 -2.82958 28984 ft 463 kts 231°
2026-05-06 03:35 40.14918 -2.89420 28986 ft 464 kts 231°
2026-05-06 03:36 40.10775 -2.95881 28984 ft 464 kts 231°
2026-05-06 03:36 40.06626 -3.02333 28996 ft 464 kts 231°
2026-05-06 03:37 40.02470 -3.08785 28983 ft 464 kts 231°
2026-05-06 03:37 39.98314 -3.15228 28990 ft 464 kts 231°
2026-05-06 03:38 39.94162 -3.21650 28992 ft 464 kts 231°
2026-05-06 03:38 39.90029 -3.28029 28994 ft 464 kts 231°
2026-05-06 03:39 39.85859 -3.34448 28990 ft 464 kts 231°
2026-05-06 03:39 39.81686 -3.40866 28990 ft 464 kts 231°
2026-05-06 03:40 39.77501 -3.47209 28993 ft 464 kts 228°
2026-05-06 03:40 39.72958 -3.53185 28996 ft 465 kts 226°
2026-05-06 03:41 39.68394 -3.59153 28991 ft 465 kts 227°
2026-05-06 03:41 39.63844 -3.65125 28992 ft 465 kts 227°
2026-05-06 03:42 39.59293 -3.71097 28994 ft 465 kts 227°
2026-05-06 03:42 39.54736 -3.77058 28992 ft 465 kts 227°
2026-05-06 03:43 39.50170 -3.83016 28993 ft 465 kts 226°
2026-05-06 03:43 39.45601 -3.88972 28987 ft 465 kts 227°
2026-05-06 03:44 39.41068 -3.94873 28993 ft 465 kts 226°
2026-05-06 03:44 39.36498 -4.00809 28990 ft 466 kts 227°
2026-05-06 03:45 39.31912 -4.06754 28992 ft 466 kts 226°
2026-05-06 03:45 39.27330 -4.12680 28991 ft 466 kts 226°
2026-05-06 03:46 39.23511 -4.17613 28992 ft 467 kts 226°
2026-05-06 03:46 39.18913 -4.23540 28987 ft 467 kts 226°